Theta_e
347 348 348 349 349 349 350 350 350 350 351 350 351 349 350 351 352 352 352 352 352 352 351 351 347 347 349 348 348 346 347 346 346 347 348 349 352 358 361 361 360 360 359 359 358 358 358 358 358 358 358 357 357 356 355 355 356 356 356 356 356 356 356 356 356 356 356 357 357 357 357 356 356 356 356 354 354 354 354 353 352 350 351 351 350
349 349 349 349 350 350 351 351 350 350 350 348 350 350 350 349 350 351 352 352 352 352 353 348 346 346 348 348 347 347 348 347 347 348 349 350 351 357 362 361 361 360 359 359 359 358 358 358 358 358 358 358 358 358 356 356 356 356 356 357 357 357 356 356 356 356 356 357 357 357 357 357 357 356 357 356 355 354 354 354 352 351 350 352 351
350 349 349 349 349 349 349 350 350 350 350 349 350 351 349 350 350 349 350 350 350 349 351 343 341 345 349 348 347 347 349 349 349 349 349 349 351 351 358 362 362 361 360 359 358 359 358 358 358 358 357 357 357 357 357 357 357 357 357 357 358 357 356 356 356 356 357 357 358 358 358 357 357 356 357 356 356 356 355 354 353 352 351 351 351
351 350 350 349 349 349 349 348 349 349 350 349 348 351 353 352 354 355 354 350 352 349 346 340 339 344 347 347 347 347 348 349 350 350 350 349 349 351 352 357 362 361 361 360 360 359 359 359 358 358 358 358 358 357 358 358 358 358 358 358 357 358 358 357 357 357 357 358 359 358 358 357 357 357 357 357 357 357 356 355 354 353 352 352 352
351 352 356 348 349 349 350 351 349 349 350 352 352 353 354 354 351 357 353 351 349 348 353 340 339 341 345 346 346 346 348 349 349 350 350 350 349 350 351 354 354 361 362 362 361 361 360 360 360 360 360 359 359 359 359 358 359 358 358 358 358 358 358 359 358 358 359 358 358 357 358 358 357 357 357 358 358 357 356 355 354 354 354 353 353
352 350 352 348 348 348 348 349 350 352 352 353 353 355 354 351 354 351 359 356 348 346 348 339 339 340 343 345 345 346 347 348 349 349 350 350 350 350 351 351 352 353 356 361 362 361 362 361 361 361 361 360 361 360 360 360 360 359 359 359 358 358 359 359 359 359 358 358 358 358 358 358 358 357 357 357 357 357 356 356 355 355 354 354 353
352 351 350 348 348 348 348 349 351 356 354 355 355 354 352 352 357 352 350 351 351 355 346 340 341 340 341 343 343 346 347 348 348 348 349 348 349 350 351 352 352 353 355 352 361 362 362 362 362 361 362 361 361 362 362 362 361 361 360 359 359 359 360 360 359 359 359 359 359 359 359 358 359 359 359 357 357 356 356 356 356 356 356 356 356
352 351 349 348 348 348 348 350 354 355 356 355 358 353 353 356 356 355 349 350 354 348 350 345 343 341 342 342 342 349 345 346 347 347 348 348 349 350 350 351 352 352 358 353 352 356 360 362 363 362 362 362 362 363 363 363 362 361 361 361 361 360 360 360 360 360 360 360 360 360 360 359 359 359 359 358 357 357 357 357 357 358 357 357 356
353 353 349 349 349 349 351 354 358 356 355 353 352 357 352 357 353 357 354 351 350 352 349 350 348 345 344 342 342 346 344 345 346 347 350 347 347 348 349 349 352 359 355 355 353 352 356 360 362 363 363 363 363 363 363 364 364 363 363 362 361 362 362 361 361 361 361 361 361 361 360 360 360 360 360 360 360 360 360 359 359 359 358 358 358
356 354 351 352 351 352 353 356 357 355 353 351 352 354 353 352 353 355 361 353 349 350 348 346 349 349 346 345 344 345 344 344 346 354 347 347 347 347 347 348 349 351 353 354 353 352 352 355 359 362 363 363 364 364 364 364 364 364 363 363 364 363 363 363 363 363 362 362 362 362 362 362 361 361 361 361 361 360 360 361 361 361 360 360 360
358 357 352 356 353 354 356 358 356 352 351 350 351 356 358 354 354 355 355 353 352 352 351 350 354 349 346 345 346 347 346 343 348 350 347 347 348 351 349 348 348 349 350 352 352 351 351 350 349 350 353 360 363 365 365 366 365 365 365 364 364 364 365 364 364 364 364 363 363 363 363 362 362 362 362 362 362 362 362 362 361 362 361 361 361
356 356 356 356 353 355 356 356 354 351 350 349 348 348 351 353 353 360 353 352 354 354 351 348 346 342 349 350 346 346 346 348 347 346 349 347 348 352 351 350 349 349 350 351 352 351 350 349 353 349 350 353 359 362 364 366 367 367 367 367 366 366 365 365 365 365 365 365 365 364 364 364 363 363 363 363 363 363 363 362 362 362 362 362 361
360 357 356 361 355 355 355 355 354 352 350 349 350 352 354 356 358 357 357 349 347 351 350 346 338 338 337 339 340 342 352 355 347 348 347 346 347 349 351 352 351 351 352 353 352 352 351 350 349 349 349 349 351 356 359 361 365 367 367 368 368 368 367 366 366 366 366 367 367 365 364 363 364 364 363 363 363 363 363 362 362 361 362 362 361
361 359 358 356 354 354 353 353 353 352 352 356 357 364 354 352 353 349 350 350 345 351 352 342 336 333 332 332 336 337 342 349 347 347 347 347 346 346 348 349 349 350 352 353 353 354 353 352 351 351 350 348 348 348 350 351 354 359 363 366 368 370 369 369 367 367 367 368 368 365 365 364 364 365 364 364 364 364 363 362 362 362 362 359 360
360 363 358 356 356 355 355 353 352 355 354 348 350 350 352 352 351 348 346 348 353 354 351 341 338 340 338 335 327 329 336 335 339 344 345 345 346 345 347 347 348 348 349 350 351 353 355 354 353 353 351 349 348 348 349 354 354 359 360 360 361 364 368 369 370 369 368 368 368 367 366 366 366 366 366 365 364 364 364 363 362 362 362 361 361
360 361 359 358 356 355 354 353 352 355 349 347 350 350 351 353 353 356 348 343 343 343 357 347 343 339 331 332 330 328 326 327 331 336 340 342 343 344 346 345 346 346 346 346 348 350 352 354 353 353 352 351 349 348 349 349 354 360 363 365 365 362 363 365 368 369 368 369 367 367 367 367 366 365 366 365 364 364 363 362 362 362 362 362 361
360 360 360 357 356 353 354 354 354 355 353 350 350 351 352 352 354 353 350 345 343 344 350 355 348 343 340 336 328 325 325 329 333 333 338 340 340 341 344 345 343 343 345 344 345 346 349 351 352 353 353 352 351 350 350 351 352 358 359 363 364 364 364 365 367 369 369 369 368 367 366 365 365 364 365 365 364 363 362 362 361 361 361 361 361
359 360 360 360 357 355 353 354 354 356 357 352 351 352 351 352 352 353 351 348 348 343 344 351 356 357 347 341 336 332 331 333 331 326 333 342 344 344 339 341 343 342 342 343 343 343 348 348 350 351 353 352 353 352 352 352 357 355 354 353 361 362 363 362 366 368 370 370 369 369 368 365 365 365 364 364 364 363 363 362 361 362 362 361 361
360 359 360 361 358 357 355 355 356 354 359 353 351 353 353 353 355 353 352 355 349 344 341 346 345 349 355 354 352 346 339 337 330 331 326 331 336 339 337 335 338 339 339 341 342 341 342 347 348 350 350 351 352 353 353 354 359 361 363 364 363 364 363 362 363 367 369 369 369 368 368 367 365 364 363 363 363 363 363 362 362 362 362 362 362
359 357 359 361 360 358 357 356 356 355 359 357 354 353 353 353 357 354 353 356 350 346 343 345 341 342 353 352 354 355 344 343 336 334 331 326 329 334 335 335 333 335 339 339 340 340 340 342 346 347 347 348 350 350 351 351 351 352 356 360 364 365 365 363 365 366 368 370 370 369 368 366 365 363 362 363 364 363 363 362 362 362 362 361 361
358 358 357 360 363 359 357 355 356 356 361 358 356 355 354 352 352 354 354 353 350 352 350 345 343 344 344 344 344 342 344 343 340 339 334 326 325 328 331 336 332 333 334 334 337 338 340 340 343 347 348 348 348 348 349 349 349 349 355 359 363 365 366 364 364 368 368 369 370 368 366 365 363 364 363 363 363 363 363 363 362 362 362 362 359
355 357 357 359 360 360 358 357 357 358 361 358 357 355 354 353 353 353 352 354 355 355 349 348 347 347 347 346 341 341 338 337 338 333 332 330 329 329 330 333 331 330 338 336 335 336 335 337 341 346 347 346 346 347 348 349 350 351 353 359 362 364 364 363 364 367 367 365 367 367 365 365 364 364 364 364 364 363 362 362 362 362 362 360 356
355 356 357 359 358 361 359 358 358 360 361 358 357 357 355 356 356 356 356 352 352 352 356 356 354 351 350 347 346 344 340 338 338 337 332 329 327 327 329 334 335 333 336 339 349 341 336 337 340 343 345 346 346 347 347 348 353 355 357 358 359 361 361 362 362 363 358 358 361 365 364 364 364 363 362 362 363 362 362 361 362 361 360 357 353
353 354 356 359 359 359 361 359 359 356 357 358 356 356 356 357 355 354 352 353 353 355 352 350 350 348 348 351 349 349 346 343 344 342 336 332 330 329 329 334 334 335 339 344 339 337 336 338 339 342 344 345 346 348 349 351 351 359 359 359 358 360 361 362 363 361 358 356 355 355 355 358 359 360 359 360 362 362 361 361 360 360 359 354 352
352 354 355 358 359 358 358 358 356 358 358 356 355 356 355 355 353 353 353 353 353 351 350 350 352 349 349 351 349 348 347 346 346 344 339 335 333 331 330 337 334 335 337 341 340 340 338 337 338 340 342 345 347 348 349 354 351 355 360 359 358 359 359 360 361 358 355 353 354 355 355 357 358 359 359 359 360 360 359 360 360 359 357 353 351
353 354 356 359 360 359 360 359 357 356 358 356 356 355 354 355 354 354 354 355 354 353 352 354 352 353 352 351 351 349 350 350 350 344 341 337 333 334 334 332 337 337 337 339 340 333 335 336 342 345 345 346 347 349 352 354 355 357 359 356 352 349 353 355 357 356 354 353 353 354 354 357 359 362 359 359 360 360 359 359 359 357 356 354 350
353 356 358 359 359 359 359 358 357 356 357 357 360 356 357 355 356 355 355 354 354 355 354 355 357 355 353 351 353 352 351 350 350 348 344 341 338 337 336 335 332 330 335 335 337 339 340 339 342 347 346 353 349 351 354 355 358 359 360 354 350 351 350 351 353 354 354 354 354 354 354 356 358 361 360 360 359 360 360 360 359 356 353 351 348
353 356 357 359 358 358 359 358 357 357 357 358 357 357 355 353 353 355 355 361 355 354 355 354 356 355 354 352 350 351 352 352 353 351 349 344 345 342 338 333 332 329 329 331 332 335 343 342 339 343 349 352 354 355 360 361 357 359 361 353 351 349 350 350 350 351 351 350 350 350 351 353 355 357 358 360 358 357 358 358 359 355 351 349 348
354 356 356 357 357 358 358 358 358 358 358 358 358 356 354 353 353 352 355 354 355 353 353 353 354 356 354 353 352 351 351 353 354 355 352 350 348 343 343 339 332 331 327 327 327 332 339 345 339 340 350 352 354 355 356 355 358 360 356 355 353 351 349 347 348 347 348 348 349 349 351 352 353 354 356 358 357 357 357 357 357 357 353 349 347
355 356 356 356 356 363 357 357 357 359 360 360 358 357 355 353 353 353 355 355 354 354 356 355 356 354 357 356 353 352 353 354 354 355 355 350 351 349 346 343 339 337 331 330 329 332 337 343 341 343 348 352 355 357 357 356 357 358 356 355 354 353 347 346 348 348 347 347 347 347 348 350 352 353 354 354 354 354 355 355 356 356 353 350 348
355 354 355 355 355 356 357 356 357 359 359 359 359 357 356 354 354 354 354 354 353 353 353 355 356 355 352 352 351 351 352 354 355 353 355 354 350 351 349 345 341 339 336 333 331 333 341 340 343 348 349 351 355 356 357 355 358 358 356 355 355 353 351 352 350 348 347 346 345 344 344 345 346 346 346 347 348 350 352 353 355 355 354 351 348
352 352 354 355 355 354 356 356 357 359 359 359 359 358 357 356 356 356 356 353 353 353 355 354 357 355 352 350 351 350 351 351 350 350 352 354 354 351 349 348 343 341 341 336 335 338 341 345 345 348 351 352 355 355 353 353 357 357 354 356 357 357 356 356 354 350 347 346 345 343 342 341 340 341 343 345 348 350 352 352 351 352 353 351 347
352 351 351 354 355 355 355 356 356 357 358 358 358 357 356 355 355 355 355 354 354 353 353 353 353 351 351 350 351 351 350 349 349 349 351 351 351 351 349 347 345 345 343 339 337 340 342 342 345 347 352 354 353 349 349 351 351 352 354 354 355 355 355 355 356 352 349 346 343 342 341 340 339 338 339 343 345 348 351 353 351 350 350 347 344
351 352 350 352 355 355 355 354 355 356 357 357 357 356 355 355 355 357 356 353 352 352 350 350 352 352 350 348 350 350 350 349 350 350 349 349 347 347 347 348 346 348 347 344 340 338 340 342 343 346 347 352 349 346 348 349 350 353 353 354 356 354 355 355 354 355 350 346 342 340 339 338 338 337 338 340 343 345 346 346 346 344 343 342 338
350 351 351 351 352 354 355 354 353 354 355 356 356 356 355 355 354 355 356 354 353 352 351 351 351 351 349 348 349 349 352 349 349 349 350 348 347 345 346 346 346 347 346 347 343 339 341 342 341 343 344 345 346 349 349 350 352 351 351 353 354 356 357 356 356 357 351 347 344 341 338 337 337 337 336 336 339 339 340 340 338 337 338 336 332
348 349 350 351 351 351 353 354 353 353 353 354 355 355 355 355 354 354 354 354 353 352 352 352 351 351 350 348 349 349 348 347 348 347 347 347 346 346 345 345 343 345 345 346 347 345 340 341 341 343 344 344 346 348 350 352 352 353 350 352 352 353 355 356 355 355 352 347 345 342 340 338 336 335 334 334 334 332 333 334 333 333 333 332 331
347 347 349 349 349 350 351 352 352 352 352 352 352 353 354 355 354 354 354 353 352 352 351 351 356 351 350 350 350 349 347 347 347 346 347 346 348 346 346 346 346 346 346 346 345 345 343 342 341 340 342 342 345 348 348 348 349 348 346 347 351 352 352 352 352 353 348 345 345 344 341 339 337 335 333 333 332 331 331 330 330 331 331 330 328
346 346 346 347 348 349 350 351 351 352 352 351 351 352 352 352 353 354 353 353 352 351 350 349 349 350 351 350 351 350 349 348 348 348 345 345 346 346 345 346 345 344 343 342 343 343 343 343 342 341 338 342 341 343 345 346 345 346 349 350 349 349 345 345 346 350 352 353 353 354 347 344 340 334 332 332 331 330 330 330 330 329 327 326 323
345 344 344 345 347 347 348 351 351 351 351 351 351 351 351 351 351 351 352 352 351 351 350 350 350 349 349 350 350 350 350 349 348 348 347 346 346 344 345 344 344 341 342 341 340 341 341 341 341 341 341 342 342 344 345 345 345 348 347 346 344 345 343 340 346 349 351 351 349 348 348 347 344 343 336 332 330 329 329 329 328 327 327 325 322
344 344 343 343 344 347 346 348 350 352 351 351 350 350 350 351 350 350 350 350 350 350 350 350 350 350 350 350 350 350 350 350 349 348 348 347 345 344 344 343 342 340 340 340 339 339 339 340 340 341 338 338 339 344 346 343 343 340 343 344 340 341 343 344 344 345 347 349 349 352 350 347 343 340 333 332 333 332 331 331 332 333 332 329 326
345 343 343 342 342 343 345 346 346 349 351 351 352 351 350 350 350 349 349 350 350 349 349 349 349 349 350 350 350 350 352 360 359 356 355 356 348 345 345 343 343 342 341 341 341 339 338 338 337 338 337 338 340 340 340 339 339 339 338 338 339 343 343 343 345 346 347 346 349 350 351 351 349 348 346 344 344 342 340 336 337 338 336 330 327
342 344 345 346 341 340 342 344 345 345 346 349 353 346 348 352 350 350 349 348 349 349 349 348 348 348 349 349 351 360 362 364 362 356 349 351 355 352 347 344 343 342 340 339 338 338 337 336 335 335 335 335 337 338 339 340 342 340 341 341 340 343 341 341 342 343 344 345 345 344 347 351 348 346 344 344 345 347 347 343 343 340 337 332 330
344 344 348 348 346 341 339 340 342 345 346 347 343 336 336 340 351 349 349 348 347 347 348 347 347 348 348 349 349 355 361 366 363 359 351 346 347 349 351 354 355 345 339 338 337 337 336 336 337 336 336 337 339 340 340 342 343 343 342 342 342 340 338 336 337 342 341 342 341 339 343 341 343 344 344 344 346 346 345 346 341 338 333 331 330
347 349 349 348 348 347 344 340 339 342 345 345 335 332 333 333 340 350 349 348 348 347 347 347 347 347 347 348 349 350 350 350 350 351 352 351 345 344 343 344 346 348 351 346 342 338 336 336 336 337 337 337 339 340 341 341 342 341 343 342 340 340 339 337 335 337 341 350 343 342 345 339 342 344 343 346 348 349 351 343 337 335 333 331 330
350 349 348 349 348 349 349 345 343 342 341 339 333 330 330 329 330 338 346 348 347 347 347 347 347 347 347 347 347 348 349 359 360 353 349 348 345 343 342 342 344 342 337 337 343 347 342 338 336 336 337 338 338 340 342 342 341 340 339 339 340 338 339 338 339 339 344 345 341 341 342 343 339 343 343 346 348 349 350 341 337 335 333 331 330
348 348 349 349 349 348 349 348 347 349 346 339 330 328 328 328 329 332 340 345 347 348 348 348 348 347 347 346 346 346 347 348 348 348 348 347 346 345 344 343 342 346 345 340 336 337 343 343 340 338 340 340 340 341 345 344 342 342 341 340 340 338 338 339 342 343 346 348 345 342 340 343 343 342 342 346 349 349 348 342 335 332 332 330 329
347 346 348 347 348 349 350 349 348 350 349 331 329 327 324 324 326 331 339 341 344 345 347 348 348 348 348 348 346 346 346 346 346 348 345 344 343 343 341 340 340 339 340 340 341 341 340 341 341 341 342 343 343 344 345 345 346 346 345 343 341 340 341 342 342 344 344 346 345 340 337 341 340 342 345 347 349 348 348 339 334 332 330 327 327
350 349 349 349 349 348 348 349 349 348 347 327 327 325 323 322 324 335 337 338 340 341 343 344 346 347 348 348 347 346 346 345 349 342 348 348 344 342 341 341 340 340 340 345 336 338 344 342 342 342 343 344 339 345 346 345 344 344 345 342 339 338 337 336 336 340 341 341 345 341 337 340 344 343 345 348 347 346 348 346 336 333 327 324 324
350 350 349 349 350 350 350 350 349 348 349 332 323 322 320 319 326 333 333 335 336 337 338 340 341 343 345 346 345 346 345 344 344 333 332 344 342 342 342 341 342 341 341 342 335 330 328 328 328 330 330 330 329 328 327 328 338 339 336 333 334 336 334 335 339 339 341 341 339 346 341 339 342 342 343 345 345 345 345 344 342 328 322 321 320
348 350 350 349 349 350 350 350 351 349 349 340 319 318 318 316 331 335 334 335 336 337 337 338 339 340 342 352 355 346 343 343 336 330 330 339 339 339 339 339 339 339 340 342 343 343 331 325 324 325 326 327 327 327 328 327 326 333 335 334 337 337 338 338 337 340 341 341 341 347 336 339 340 336 338 337 336 338 339 340 337 327 322 320 317
348 349 352 351 350 349 352 353 355 353 352 346 322 317 317 315 327 338 338 337 338 338 339 339 340 341 340 347 351 350 349 344 329 326 325 334 336 338 338 338 337 337 339 341 340 340 341 342 343 343 342 338 340 338 340 332 331 340 337 337 339 339 339 340 341 338 337 341 341 345 337 334 335 334 335 332 330 335 333 333 332 328 323 323 323
Wind_Speed
2 1 2 2 1 1 1 1 1 1 1 2 2 1 2 2 3 3 3 4 4 4 2 3 2 2 3 3 2 2 2 2 2 3 3 3 4 5 9 8 7 7 6 6 6 6 6 7 6 7 7 7 7 6 5 6 6 6 6 7 6 6 7 7 7 6 6 7 6 7 7 7 7 7 7 7 7 7 7 7 7 7 7 7 7
1 0 1 1 0 0 0 0 0 1 1 1 1 0 2 3 3 2 4 4 4 5 3 4 4 3 3 4 4 4 3 3 3 4 3 4 4 4 9 8 8 7 7 7 8 7 7 7 7 8 8 8 8 8 7 8 7 8 8 8 8 8 8 8 8 8 8 9 8 8 8 8 8 8 8 8 9 9 9 9 8 9 9 8 9
1 0 1 1 1 1 1 0 1 1 0 2 1 1 2 3 4 4 4 4 5 4 3 4 4 4 4 5 5 4 4 4 3 3 4 4 4 4 5 9 9 9 9 9 9 9 9 8 8 8 8 8 9 9 9 9 9 9 10 9 9 9 9 9 8 8 9 10 10 10 10 9 9 9 9 9 9 10 10 10 9 10 10 10 9
1 0 1 0 0 1 1 1 2 2 1 1 2 2 3 4 3 3 4 4 5 3 1 3 4 5 4 5 4 4 4 4 4 4 4 4 4 4 4 4 9 10 10 10 10 10 10 10 10 10 10 10 10 10 10 10 10 10 10 10 10 10 10 10 10 10 10 11 11 11 11 10 10 10 10 10 10 10 10 10 11 11 11 11 10
2 2 1 1 0 0 1 1 2 2 2 2 2 2 2 2 2 2 2 1 2 2 0 2 3 3 4 4 4 4 3 4 4 4 4 4 4 4 4 4 3 8 11 11 11 11 11 11 11 11 11 11 11 11 12 11 11 11 12 12 12 11 12 11 11 11 12 12 12 12 11 12 12 11 11 11 11 11 11 11 11 12 12 12 12
3 2 1 1 1 1 1 2 1 1 1 1 3 2 2 2 2 3 3 3 2 1 1 3 3 3 4 3 4 4 4 4 4 4 3 4 3 3 4 4 4 3 4 10 11 11 11 11 12 12 11 12 12 12 12 13 13 12 13 12 13 13 13 13 12 12 12 12 13 12 12 12 13 13 13 12 12 12 12 11 12 12 12 12 13
3 3 2 2 2 2 2 3 2 1 2 1 1 1 1 2 3 4 3 1 1 1 1 4 4 4 5 5 5 4 3 5 4 4 4 3 3 4 4 4 4 4 4 4 6 11 12 12 12 12 12 12 13 13 13 13 13 13 13 14 13 13 14 13 13 13 13 13 13 13 13 13 13 13 12 13 12 12 12 13 12 12 12 13 13
3 3 3 3 2 3 3 2 2 2 2 2 0 1 2 3 2 1 2 2 2 2 2 1 3 4 5 5 5 4 5 4 5 5 4 2 4 3 4 4 4 4 5 4 5 5 11 12 13 13 13 13 14 13 14 14 14 14 14 14 14 14 14 14 13 14 13 14 14 14 14 14 13 13 13 13 13 12 13 13 13 12 13 14 14
3 3 3 2 2 2 2 1 0 1 2 2 1 2 3 3 2 2 1 2 3 3 2 2 1 3 3 5 5 5 5 6 5 4 2 4 3 4 4 5 4 6 4 4 4 5 7 11 12 13 13 14 14 14 14 14 14 14 14 14 15 14 14 14 14 14 14 15 15 15 14 14 14 13 13 13 13 12 12 13 14 14 14 14 14
3 3 2 2 2 2 1 1 1 0 1 1 2 2 2 2 3 2 2 3 3 3 3 3 2 2 1 3 3 4 5 5 4 3 4 4 4 5 5 4 3 4 4 4 5 5 5 7 11 12 13 13 13 14 14 14 14 14 14 14 14 15 14 13 13 13 15 15 15 15 15 14 14 13 13 13 14 13 13 12 12 13 15 14 15
3 3 3 2 2 1 2 2 2 1 0 1 2 3 3 2 3 4 3 1 1 2 2 2 4 3 3 2 1 2 3 3 3 4 5 5 5 5 3 5 4 4 5 5 4 4 5 5 4 5 6 11 12 13 14 14 14 14 14 14 14 14 14 14 13 14 15 15 15 15 14 14 14 14 14 13 14 12 12 14 14 15 15 14 14
2 3 3 3 3 2 2 2 2 2 1 0 1 2 3 4 4 3 5 3 2 3 3 3 2 2 2 3 3 1 1 2 3 5 4 4 6 4 5 4 4 5 5 5 4 5 5 5 5 5 5 7 11 12 13 13 14 14 14 13 14 14 14 14 14 14 14 14 14 14 13 13 14 14 14 14 13 12 12 13 14 14 15 14 13
2 3 3 3 2 2 2 1 2 2 1 1 0 1 1 1 2 1 2 4 2 3 3 2 2 2 2 2 4 3 2 2 3 3 5 6 5 5 5 4 5 5 5 4 4 5 5 5 5 5 5 5 6 9 11 12 13 12 13 13 14 14 15 14 14 14 14 14 13 12 12 11 12 13 14 13 12 12 13 12 12 14 13 13 13
3 3 3 4 3 3 2 2 2 1 0 0 0 0 2 3 2 2 1 1 1 1 3 1 3 1 2 5 3 5 3 2 2 3 5 4 5 5 5 6 7 6 4 4 5 5 5 5 5 5 5 5 5 5 6 7 8 11 12 13 14 14 14 15 14 14 13 13 13 12 11 11 11 12 12 12 12 12 12 12 12 13 12 14 13
3 3 4 3 4 4 3 2 2 1 1 0 1 2 2 2 1 1 3 2 1 1 1 2 1 1 1 1 3 5 5 4 2 3 5 5 5 5 6 6 8 6 4 4 5 5 5 5 5 5 5 5 5 5 6 6 8 12 11 12 13 14 15 15 14 14 13 13 12 11 11 11 11 12 12 11 11 12 12 11 11 11 11 12 12
2 3 3 3 4 4 3 2 2 2 2 2 0 1 2 1 1 1 1 2 4 3 2 2 2 0 2 0 1 1 4 3 3 6 2 4 5 6 5 7 7 5 3 5 6 5 5 5 6 6 5 5 5 5 6 6 9 12 13 13 13 13 13 14 14 14 13 12 11 10 10 10 10 10 12 11 11 11 11 10 10 10 9 11 11
2 2 3 3 3 2 3 2 2 2 2 2 2 2 1 1 0 1 1 0 3 2 2 2 2 2 2 1 2 2 1 4 4 5 3 1 3 4 5 6 6 6 5 6 5 5 5 5 6 5 6 6 5 6 6 7 7 6 8 11 12 12 13 12 13 13 12 12 11 10 9 9 9 9 10 12 12 10 10 10 9 8 8 8 9
3 3 3 2 3 3 3 3 3 2 3 2 1 0 2 1 1 1 0 1 1 2 2 2 2 0 2 2 3 1 2 2 2 4 6 1 2 3 5 7 5 5 5 6 6 6 4 6 4 6 6 6 5 6 6 7 6 6 6 8 11 12 11 10 10 12 12 11 10 8 8 8 8 9 10 11 11 11 10 9 8 7 8 7 8
3 3 3 3 3 3 3 3 3 2 1 2 2 3 3 2 0 1 1 1 1 1 2 2 4 1 0 0 1 2 2 0 2 0 5 6 4 3 4 4 5 4 6 6 5 4 5 4 5 6 6 6 6 6 6 7 7 7 10 12 13 12 11 9 9 10 11 10 10 9 8 8 8 8 9 9 11 11 9 9 8 7 7 6 6
4 4 4 3 3 3 3 3 3 2 2 3 3 3 2 2 1 1 0 1 2 2 2 1 1 2 2 2 1 0 1 1 3 1 1 2 6 5 3 4 2 4 4 5 4 5 5 4 5 6 6 7 6 6 6 6 5 5 6 10 11 12 12 10 9 10 10 10 9 9 8 7 8 8 8 9 10 11 9 8 8 7 6 6 4
4 4 4 3 3 4 3 3 2 3 2 2 3 2 3 3 1 1 1 0 1 2 1 1 0 1 3 3 3 2 1 0 1 1 1 0 3 2 5 5 2 2 2 3 4 3 4 5 5 6 6 7 6 6 6 5 6 5 6 10 11 11 11 10 9 9 10 9 9 8 7 7 8 8 9 9 10 10 10 8 8 7 6 4 2
3 3 3 3 3 3 3 3 3 3 2 3 2 2 3 3 2 2 2 2 1 2 1 1 1 1 0 0 2 3 5 2 1 3 1 1 1 4 3 4 5 5 3 3 4 5 5 5 5 6 7 7 6 5 5 5 6 5 7 11 11 11 11 10 9 10 10 9 9 8 8 7 7 7 8 9 9 9 9 8 7 7 6 4 2
3 3 3 3 3 3 3 3 3 2 2 3 3 3 3 3 2 0 1 2 2 2 1 0 0 1 1 0 0 1 1 1 3 2 0 1 2 3 4 2 2 4 3 3 4 5 4 4 6 6 7 7 5 5 5 5 5 7 11 12 11 10 11 10 9 10 10 10 10 8 8 7 7 7 7 8 8 8 7 7 7 6 6 4 2
3 3 3 3 3 3 3 3 3 3 3 3 3 3 2 1 1 1 2 1 0 0 0 2 2 2 3 1 1 2 2 3 3 2 2 2 2 3 3 4 2 2 5 6 1 1 2 3 3 3 3 4 5 5 3 4 6 10 8 9 10 10 10 10 10 10 11 11 11 11 10 8 8 7 7 8 8 7 6 6 7 6 6 3 4
5 5 4 4 4 4 3 4 3 3 3 2 3 2 1 1 2 2 2 2 2 2 2 3 1 2 4 3 2 1 3 3 2 2 2 1 3 0 1 1 1 3 2 1 2 5 1 3 3 3 3 3 5 3 3 4 5 8 8 7 10 10 9 9 10 11 11 12 12 12 11 9 9 8 7 7 8 7 5 5 6 6 5 4 5
5 6 6 5 4 5 4 4 3 3 2 3 3 2 2 3 3 3 3 3 1 2 2 2 2 2 1 3 4 2 4 2 2 1 2 2 1 1 1 1 1 2 3 3 2 3 3 3 2 1 2 2 3 3 3 5 6 9 10 6 7 9 9 9 10 11 12 13 13 13 12 11 8 7 7 7 7 7 5 4 6 6 6 5 4
6 5 4 5 5 4 4 4 3 3 3 3 2 2 2 2 2 3 3 2 2 2 3 3 4 3 3 3 4 4 5 2 2 2 2 4 2 1 1 4 5 4 4 2 3 0 1 4 3 2 2 3 1 2 2 3 5 9 9 5 5 9 10 10 10 11 11 13 13 14 14 13 11 8 8 8 7 7 6 5 5 6 7 5 5
5 4 4 5 5 5 4 4 3 3 3 3 3 3 2 2 2 2 3 1 2 2 3 2 3 3 3 3 3 5 4 3 2 2 1 2 2 3 3 3 1 5 5 4 4 2 1 3 3 2 3 4 3 3 4 5 5 8 8 4 5 6 10 11 11 11 12 12 13 13 14 14 13 11 9 7 8 7 7 6 6 6 6 6 5
5 4 4 4 4 4 4 4 4 4 3 4 4 3 3 3 3 2 3 2 1 3 2 3 3 3 3 3 3 4 5 3 3 3 2 1 2 2 2 1 4 1 2 3 3 1 3 2 1 3 2 3 4 2 3 4 5 6 4 5 5 5 9 11 12 12 13 13 13 13 13 13 13 12 11 8 8 8 7 7 7 7 7 7 6
5 5 4 5 4 5 5 4 4 3 4 4 4 3 3 3 3 3 3 1 1 2 2 2 3 2 3 3 3 4 4 3 4 2 1 1 1 2 2 3 4 1 3 1 4 3 3 3 1 1 4 6 4 5 3 4 5 5 4 4 5 5 9 11 12 13 13 13 13 13 12 13 13 12 11 10 9 9 7 7 7 8 8 8 7
5 4 5 5 5 5 5 5 4 5 4 4 4 4 4 3 3 4 3 2 2 3 3 2 3 2 3 3 3 3 3 3 3 2 1 0 1 0 0 2 2 3 4 3 1 3 2 2 3 3 2 4 4 4 5 4 5 5 4 4 4 7 9 8 11 12 13 12 12 12 12 13 13 12 11 10 10 9 8 7 8 8 9 8 7
5 5 5 5 6 6 6 6 6 5 5 5 5 5 5 5 4 4 4 3 3 3 4 3 2 2 2 3 3 3 4 3 4 3 2 0 1 1 1 1 0 2 4 3 2 6 4 4 4 7 5 3 5 5 5 5 5 6 4 5 5 7 6 6 9 11 12 12 12 12 12 12 12 12 11 10 10 10 9 8 8 9 9 9 8
4 4 4 5 5 6 6 6 7 6 6 6 5 5 5 5 5 5 4 3 4 4 3 4 3 3 3 3 4 4 2 3 4 4 4 2 0 0 0 1 1 3 2 2 2 6 5 3 3 4 4 3 4 2 4 5 6 6 5 4 4 4 5 5 6 9 12 13 13 12 11 11 12 12 11 10 11 11 9 8 9 9 10 10 9
4 5 5 4 4 5 5 6 6 6 6 6 6 5 6 5 5 4 4 4 4 4 3 4 4 4 3 4 4 5 3 3 3 4 3 3 2 2 2 2 3 3 3 2 3 2 6 3 4 3 4 2 3 3 4 5 6 5 7 7 6 4 5 5 6 7 12 13 13 12 11 11 12 11 10 10 11 11 10 9 9 10 10 11 10
4 4 4 5 5 5 4 5 6 6 6 6 5 6 6 6 6 5 5 5 5 5 5 5 5 4 4 4 5 4 3 3 3 3 3 3 2 2 3 2 3 4 3 4 3 3 5 6 3 4 3 2 3 6 4 4 4 4 5 6 6 6 5 5 5 6 10 13 13 12 11 12 11 11 10 10 10 10 10 9 10 11 11 11 10
5 4 5 5 4 5 5 4 4 4 4 4 4 5 6 6 6 6 5 5 5 5 6 5 5 4 5 4 5 4 3 4 4 4 3 3 3 3 3 3 3 4 3 3 5 4 3 4 4 3 4 4 5 4 4 4 5 5 3 5 5 6 6 6 5 6 8 12 14 14 13 11 11 10 9 9 9 9 10 10 10 11 12 12 10
6 5 5 4 5 5 6 6 5 5 5 5 5 5 5 4 5 6 5 5 6 6 6 6 5 5 5 5 6 4 4 4 5 4 4 4 4 3 4 4 4 4 3 3 4 4 4 6 5 4 3 3 4 6 3 4 6 4 3 3 5 6 7 6 6 6 8 11 11 12 12 10 9 9 8 8 8 9 10 10 11 12 12 12 11
5 6 6 5 6 6 6 6 6 7 6 6 7 7 6 6 6 6 5 5 6 6 6 5 5 5 5 6 6 5 5 5 6 5 4 5 4 4 5 5 5 4 4 4 3 4 5 6 5 6 3 4 4 4 3 2 4 5 7 6 5 4 3 7 7 6 5 5 5 7 8 7 7 7 8 7 8 10 11 11 11 12 12 12 12
5 5 5 5 5 6 7 6 7 7 7 7 7 7 6 6 6 6 7 7 6 6 6 6 6 6 6 6 6 5 6 6 6 6 6 5 5 5 6 6 4 4 5 5 3 4 4 5 4 5 6 4 3 6 3 1 2 4 4 6 7 6 4 3 7 7 6 8 8 9 9 9 8 7 7 7 8 10 11 11 11 13 13 13 13
6 6 6 6 6 5 6 7 7 7 7 7 7 7 7 7 7 7 7 7 7 7 7 7 6 7 7 7 6 6 7 7 7 7 6 7 4 6 7 4 5 4 6 5 4 4 5 4 6 7 4 4 4 4 4 3 5 4 3 4 6 7 8 5 4 7 7 6 8 7 6 6 6 6 7 7 9 11 11 10 12 12 14 14 14
3 4 4 5 6 6 6 6 6 6 6 7 7 7 7 8 7 8 8 8 8 8 7 7 7 7 6 7 7 7 8 10 12 11 9 8 6 7 7 5 5 5 6 5 6 5 6 5 7 5 5 6 6 6 7 6 7 8 3 1 4 7 6 6 8 7 6 6 6 5 6 5 5 6 4 5 6 6 8 9 9 12 14 14 14
4 3 2 2 3 5 6 7 6 6 6 6 9 13 12 9 8 8 7 7 7 7 7 7 7 7 7 7 7 12 13 14 14 14 14 14 13 10 8 6 7 6 6 6 6 6 6 7 7 7 7 7 7 7 6 6 5 3 4 4 5 7 5 6 6 6 2 2 5 8 7 4 3 6 5 7 6 4 5 4 7 8 10 12 13
4 3 3 4 3 3 4 6 6 7 7 7 13 14 14 16 10 8 8 8 7 7 7 7 8 8 7 7 7 9 10 10 11 14 14 15 15 15 16 15 11 8 7 7 7 6 6 7 7 6 7 8 9 7 7 7 5 5 5 4 6 5 5 6 8 8 1 3 4 4 7 3 2 7 7 7 7 5 5 7 10 12 13 13 13
3 3 4 5 4 3 3 3 4 6 7 10 15 14 15 16 14 10 8 7 7 7 7 8 8 8 8 7 6 6 6 8 8 8 10 13 14 15 16 16 16 16 13 10 9 7 6 7 8 8 6 8 9 6 8 4 7 5 6 5 5 5 6 6 5 6 4 1 3 5 11 3 2 5 7 8 7 5 6 9 12 13 14 14 14
3 4 4 4 4 4 3 1 1 2 4 8 11 13 13 14 12 8 6 4 5 6 6 7 7 7 6 6 6 6 6 11 9 8 8 9 12 15 16 16 16 16 15 16 16 12 9 8 8 9 8 7 7 8 6 4 3 4 5 5 5 5 6 7 7 6 8 3 2 4 9 7 1 4 8 10 7 5 6 9 12 13 13 13 13
2 2 3 4 3 4 3 3 2 1 1 3 5 11 13 14 13 10 8 8 7 7 7 7 7 7 7 7 7 7 7 6 6 7 7 8 8 8 8 8 8 11 14 15 15 17 13 10 9 10 11 6 10 9 9 5 4 7 7 8 6 5 7 8 6 7 7 2 5 4 7 10 5 6 8 9 6 6 6 9 12 12 12 12 12
2 2 3 3 2 3 2 2 2 2 3 2 2 4 8 12 13 11 7 7 7 8 8 6 7 7 7 7 7 8 8 7 7 8 8 9 8 8 8 9 9 9 8 8 8 8 8 9 10 12 12 10 10 10 9 7 8 9 8 8 6 6 6 3 4 6 9 5 5 3 6 7 2 5 9 9 7 7 7 8 11 12 11 11 11
2 2 2 2 2 3 3 3 3 3 3 6 6 5 5 7 8 6 6 7 7 8 8 8 8 7 6 7 7 8 8 8 11 13 12 9 7 8 10 10 10 10 10 11 14 12 10 9 9 11 11 12 12 11 10 8 7 7 5 1 1 3 4 6 8 6 6 2 6 5 3 6 4 4 8 8 7 9 8 7 9 8 7 8 9
2 3 2 2 1 2 3 3 4 4 4 7 9 9 8 7 6 3 3 4 5 6 7 6 6 6 6 6 6 7 7 8 12 13 13 11 8 10 11 11 11 10 11 10 12 14 15 15 15 15 15 15 15 16 16 16 11 5 2 2 8 6 6 8 8 5 8 3 2 5 3 6 5 4 7 6 6 7 9 9 7 4 5 6 7
2 2 2 2 2 2 2 3 3 3 4 4 8 7 8 9 6 4 4 4 4 4 5 4 4 5 7 12 10 8 9 9 12 14 15 10 8 9 10 11 12 12 12 10 7 8 11 13 15 16 16 16 16 17 16 16 16 7 6 10 9 3 7 6 8 6 7 6 5 6 2 7 4 2 4 5 4 5 6 7 6 4 4 4 5
2 2 2 2 2 2 2 2 4 4 4 3 3 4 4 6 4 2 3 3 4 5 5 6 5 5 5 6 9 8 7 9 12 11 12 8 7 9 9 9 11 12 13 10 7 8 7 6 7 6 7 11 11 10 11 16 16 9 8 11 7 6 8 8 8 6 7 8 3 9 4 4 2 3 3 4 4 6 4 4 5 5 4 2 3
Wind_Direction
96 99 74 71 52 48 43 34 40 26 35 28 47 6 339 323 309 294 285 285 278 273 243 249 216 200 185 196 204 184 187 196 202 210 214 216 229 242 214 219 222 227 230 240 240 238 241 248 255 261 262 264 262 263 260 264 267 268 273 277 274 276 283 288 291 290 289 290 290 297 296 295 297 291 290 284 271 269 269 269 267 273 267 267 275
129 49 86 55 62 64 61 13 7 3 27 333 354 344 264 284 277 267 259 254 253 251 225 222 220 205 193 198 203 203 189 192 205 209 221 222 227 243 224 218 227 233 237 243 247 249 247 249 253 256 260 261 265 265 263 264 266 266 266 270 276 280 280 282 286 291 294 293 296 295 294 294 292 292 290 289 285 277 270 270 272 275 276 260 266
148 126 75 79 54 128 265 12 318 295 265 255 290 267 281 264 269 274 279 273 260 247 206 195 203 204 200 198 207 196 193 197 205 214 215 225 229 233 247 228 227 234 238 243 248 252 258 260 261 262 262 263 267 268 267 265 264 268 269 271 272 274 280 285 288 289 290 291 293 294 296 295 292 289 288 288 288 287 287 286 283 281 281 280 276
164 137 135 102 73 171 189 180 250 280 269 290 288 248 248 263 264 263 258 257 276 276 173 161 189 205 190 203 194 205 201 197 207 209 222 224 232 248 252 263 237 236 240 244 248 253 256 259 262 264 267 266 265 266 266 267 266 267 269 271 274 278 281 283 285 289 288 285 289 293 294 293 292 289 288 285 285 286 285 284 285 284 283 282 280
191 186 180 180 56 41 199 227 250 247 241 242 263 266 265 285 293 280 250 201 280 317 88 199 181 205 198 201 192 209 200 202 216 209 219 221 227 237 254 260 271 248 244 245 251 253 256 260 263 266 267 268 268 268 269 270 268 267 270 271 274 277 280 281 282 283 283 285 288 291 293 292 291 291 289 289 285 284 283 284 285 285 284 285 283
175 187 165 190 232 275 279 276 248 241 240 247 284 309 325 336 336 360 347 5 339 299 151 198 199 179 211 204 196 207 193 210 222 223 221 231 223 237 248 258 261 264 271 255 251 254 258 259 260 263 263 266 267 268 270 271 272 272 272 274 275 277 280 283 284 282 283 286 290 293 293 292 291 291 291 288 286 285 284 280 279 281 282 281 282
174 173 179 181 205 261 292 284 318 335 346 305 288 335 23 349 8 5 334 352 306 315 182 201 169 180 203 201 205 196 194 215 224 230 222 233 224 238 244 254 255 260 260 268 268 259 258 260 262 262 264 265 268 268 270 270 271 273 273 275 277 277 279 281 281 281 282 287 287 289 291 290 291 292 290 288 286 284 284 285 286 285 283 281 281
163 156 168 182 192 217 254 303 320 354 351 337 10 20 348 10 349 347 351 327 3 347 5 173 182 190 197 198 202 195 203 213 223 227 224 213 236 238 245 249 252 253 252 254 261 264 262 262 263 265 266 267 268 270 271 272 273 273 274 275 276 276 278 279 280 280 282 284 286 289 289 289 288 286 286 286 285 284 283 285 286 287 286 286 285
169 156 157 174 185 220 268 280 328 23 360 342 34 25 37 360 327 346 70 338 8 347 355 355 248 231 184 198 196 196 205 216 220 224 205 213 236 246 247 248 247 252 251 253 256 263 268 267 266 267 268 269 270 270 270 272 274 275 277 276 276 276 276 276 277 279 281 283 285 285 286 286 284 285 284 284 285 285 285 285 286 285 285 286 285
175 159 162 182 180 188 214 153 118 76 357 9 2 26 35 40 338 324 10 357 355 9 347 348 342 312 235 197 197 199 220 223 222 214 204 230 232 236 240 254 255 255 258 256 257 260 265 271 273 271 269 269 270 270 270 271 272 274 276 277 277 278 278 276 275 276 278 279 280 281 281 280 280 281 281 281 283 283 284 283 281 283 287 287 287
172 161 163 178 139 155 143 132 122 119 88 21 9 1 1 9 20 338 344 306 280 302 325 324 345 325 301 289 131 216 252 232 215 209 212 225 231 237 242 247 244 252 252 252 257 261 266 267 272 276 276 275 274 274 274 274 272 272 273 274 275 275 276 276 275 275 277 277 276 276 276 277 278 279 281 282 283 283 282 285 286 287 290 289 288
144 157 160 148 155 159 148 133 126 125 138 67 354 15 351 347 347 360 346 343 8 4 22 3 347 18 347 338 330 314 264 252 208 215 219 225 233 236 240 241 233 247 248 248 252 257 262 267 266 267 273 277 277 277 278 278 276 274 273 273 273 272 273 273 273 274 274 274 274 274 274 275 277 280 282 283 284 283 284 285 287 289 290 290 289
129 140 150 151 148 148 141 136 133 136 149 195 262 326 303 308 316 346 3 12 337 0 10 73 60 351 5 358 323 309 284 180 226 243 231 228 224 228 238 246 242 238 241 244 251 257 259 262 263 269 270 274 283 284 283 281 279 273 272 271 271 271 272 272 273 273 273 274 275 274 274 274 275 279 283 284 283 283 283 284 285 290 291 292 294
141 148 149 146 150 159 179 180 173 162 165 72 322 352 15 5 6 3 9 39 323 338 324 34 18 78 31 330 336 320 284 261 231 218 219 229 228 233 235 237 243 239 234 232 246 250 256 258 263 265 268 270 274 279 282 284 283 277 273 270 271 270 270 270 271 272 273 273 275 275 275 275 275 279 280 282 283 285 286 287 287 292 294 297 298
145 149 150 161 164 167 191 181 171 182 183 253 30 359 7 353 29 68 341 346 284 267 11 77 83 164 138 52 332 5 329 349 292 250 220 213 207 223 232 237 244 238 225 226 242 248 251 254 259 259 263 266 269 270 274 274 271 273 272 271 269 269 270 270 271 273 274 275 276 277 278 279 280 282 285 286 288 289 290 290 291 291 290 293 293
160 148 146 157 162 177 177 179 191 184 167 189 279 317 347 343 18 56 87 9 0 312 67 125 115 104 342 20 259 103 338 316 315 288 249 225 206 225 221 235 243 246 204 229 238 236 245 252 258 257 258 261 263 266 270 268 274 278 278 275 270 266 265 267 270 273 276 277 278 277 277 278 281 285 290 288 290 291 291 292 292 293 292 295 297
170 154 150 160 165 167 179 198 184 189 152 171 198 226 238 243 197 89 98 119 340 330 316 51 83 154 133 35 354 16 241 258 339 291 350 277 243 237 234 236 242 238 226 239 238 234 240 247 253 261 259 259 261 263 265 268 272 272 277 276 272 270 270 268 271 276 279 282 282 283 281 281 283 286 290 293 296 295 295 296 298 297 296 295 294
175 165 163 156 173 186 193 198 204 195 187 192 204 232 264 266 224 183 153 176 174 33 322 331 33 155 157 171 167 180 280 285 49 317 322 285 306 274 244 241 237 239 238 245 238 243 226 247 248 260 263 257 258 261 259 265 266 273 271 273 272 275 275 276 277 281 283 283 285 283 283 286 287 290 294 297 299 300 301 305 307 306 304 299 305
188 178 177 181 176 186 194 207 215 205 216 176 226 241 241 240 196 177 231 146 118 336 312 297 343 42 208 202 184 192 165 41 297 320 354 323 344 343 318 280 250 234 245 244 243 244 243 233 244 250 260 258 256 255 260 260 263 263 266 271 277 279 280 279 281 279 281 282 285 287 289 290 291 292 295 296 299 303 308 312 313 309 309 307 305
183 189 186 186 177 193 196 199 205 218 226 220 231 248 262 278 255 166 138 155 164 199 265 320 96 277 339 23 10 52 138 227 174 172 196 297 313 320 278 306 288 242 244 262 261 247 253 243 242 247 251 257 249 255 258 263 265 270 275 276 277 281 284 284 280 280 279 280 284 287 288 289 291 293 294 297 301 308 311 312 314 315 314 313 333
192 188 193 188 192 192 188 194 206 224 229 237 246 243 247 271 280 124 168 138 143 143 120 336 158 330 352 349 352 19 297 150 102 103 122 87 289 305 311 324 342 277 254 264 269 243 235 242 245 246 250 252 248 252 259 266 271 268 272 275 278 282 284 283 277 271 275 277 284 287 286 288 291 295 298 300 304 310 314 315 315 314 314 331 356
200 198 192 193 200 192 176 194 214 223 231 240 258 270 276 264 241 190 172 175 176 168 171 220 203 237 176 157 42 335 2 15 29 39 28 89 198 300 301 345 346 303 325 285 258 247 223 223 237 240 245 247 251 253 260 266 269 276 272 275 282 283 283 283 276 270 272 278 280 283 287 284 287 292 298 300 305 311 314 316 313 312 313 326 335
190 204 201 197 200 187 182 205 212 214 237 237 242 244 252 245 239 173 187 201 214 188 268 351 200 266 229 167 162 164 192 242 281 313 88 310 1 316 310 267 247 316 304 294 298 278 245 212 216 235 237 242 249 256 260 267 276 270 276 285 284 280 279 280 274 271 274 277 280 279 283 286 290 296 301 303 304 312 314 314 314 312 313 314 315
196 203 212 203 198 196 194 201 210 214 235 231 247 238 238 225 220 201 233 224 10 334 145 317 321 329 327 331 242 189 190 209 241 211 206 228 155 267 273 314 340 245 283 320 274 292 293 253 263 273 301 298 272 255 272 280 276 275 278 279 277 275 276 277 277 277 275 275 277 279 282 286 290 290 295 299 302 307 312 313 317 311 307 295 307
209 205 214 202 193 192 203 208 217 218 234 233 248 230 202 181 197 228 253 257 240 224 252 260 269 295 296 307 277 236 246 234 207 214 211 172 155 239 263 157 247 296 291 11 336 319 261 271 252 238 251 267 258 297 311 290 273 276 276 275 273 273 274 274 277 280 281 280 279 279 278 277 279 282 286 286 292 299 304 309 312 301 279 279 297
204 208 204 196 193 197 194 199 199 215 224 229 237 230 193 198 194 209 226 236 219 233 247 272 265 260 241 305 312 285 276 252 244 167 168 165 224 198 281 316 199 271 294 351 317 26 327 324 282 192 191 238 359 354 327 306 299 286 284 283 289 289 281 277 278 281 283 284 284 281 278 275 266 261 275 277 278 281 284 286 300 290 279 276 293
204 212 196 192 199 191 193 192 202 207 215 228 228 210 207 201 203 221 238 225 231 243 262 263 292 310 316 293 302 298 280 275 246 262 188 198 187 178 108 6 342 5 349 319 332 53 249 287 288 332 21 44 360 327 285 272 276 283 294 292 276 280 281 278 277 281 284 285 285 284 282 276 270 258 265 270 270 274 275 270 277 270 268 275 287
208 199 203 194 200 199 194 200 199 200 205 214 221 205 196 201 227 221 244 214 218 244 259 278 285 293 296 316 320 296 292 293 297 270 210 188 154 127 118 108 64 332 336 343 350 314 315 12 321 45 62 34 352 339 315 302 289 290 292 285 281 284 283 282 282 284 284 285 285 285 284 280 273 268 261 251 263 259 257 262 262 247 250 261 273
199 201 198 200 201 197 199 203 201 201 201 206 205 200 180 196 215 227 244 249 221 246 264 278 278 290 299 289 290 303 300 307 302 304 286 138 148 164 153 147 155 111 321 335 287 279 303 21 37 301 20 9 1 309 291 304 306 316 305 294 287 284 283 289 293 293 289 287 284 283 283 283 278 270 264 251 255 251 248 251 258 251 242 249 261
194 198 193 196 200 203 202 207 203 195 203 201 197 191 175 191 208 216 228 216 265 293 277 268 280 280 281 299 323 314 302 306 285 289 291 269 174 174 173 143 144 165 180 226 279 226 269 312 212 283 328 337 335 332 317 306 306 324 313 295 291 284 286 293 292 289 289 288 285 283 285 285 284 277 268 261 257 253 244 241 248 245 239 248 253
195 202 196 202 200 205 202 208 198 202 199 201 193 188 183 202 210 225 232 195 229 270 274 258 271 264 279 297 313 301 303 307 301 327 358 215 261 191 292 132 162 139 158 150 342 287 187 275 293 246 268 302 306 309 315 308 309 322 316 305 295 294 299 293 288 287 287 286 283 282 282 282 283 281 274 264 255 249 244 231 242 245 242 244 248
201 200 202 204 204 204 204 202 200 200 198 204 193 192 188 201 206 212 235 214 228 247 269 263 261 275 287 296 291 289 303 319 306 299 295 303 168 176 175 168 163 155 142 155 201 270 232 221 258 290 289 282 305 304 297 305 302 309 306 309 301 309 309 298 297 295 293 292 288 284 283 285 286 284 277 265 256 249 242 235 240 244 241 242 245
193 196 206 214 211 209 206 202 200 197 198 200 197 190 191 203 208 210 218 214 227 244 242 272 270 262 266 271 279 276 277 298 285 292 294 263 189 241 159 167 206 174 160 169 234 281 293 235 248 263 296 320 305 240 275 295 303 308 314 298 299 300 299 292 295 296 294 293 292 293 292 290 288 287 280 267 258 251 243 228 238 242 242 241 241
192 204 201 211 215 215 210 208 203 201 201 202 199 187 195 202 212 202 211 214 223 241 239 253 262 253 249 258 272 277 267 250 278 284 273 293 291 306 296 234 251 242 193 180 229 228 281 307 291 274 272 221 251 263 250 291 300 314 322 319 315 301 294 300 300 297 293 293 293 294 292 290 288 286 280 270 260 256 249 240 241 243 241 241 237
205 205 207 205 206 207 218 215 209 207 205 206 204 196 201 204 211 215 211 208 217 230 237 245 252 256 259 250 260 266 271 274 267 261 279 287 309 295 278 240 244 257 212 199 192 246 265 277 260 294 273 284 232 280 278 261 277 281 298 309 314 313 309 303 299 293 292 293 294 293 288 287 286 283 280 277 270 267 261 251 246 247 246 241 236
208 210 203 202 198 202 211 219 216 220 216 221 215 211 210 208 212 219 219 218 221 227 231 239 245 245 246 258 259 254 262 263 269 276 274 260 262 263 270 270 241 261 248 191 206 214 240 269 284 241 274 297 285 270 275 288 287 301 285 292 301 300 305 306 302 296 296 296 296 293 286 284 285 282 278 276 277 273 266 258 252 251 249 246 238
217 206 207 198 199 197 209 213 212 213 216 215 222 223 223 220 220 222 223 222 225 228 231 235 238 237 243 242 255 259 249 253 266 265 263 271 265 258 261 269 265 261 265 223 218 199 226 256 275 268 249 260 258 284 278 291 309 306 297 288 294 300 303 298 297 291 289 292 290 288 286 286 286 283 277 278 279 274 270 264 258 255 254 250 243
222 221 214 205 200 207 209 212 211 212 208 206 212 218 217 217 219 224 226 226 227 228 231 233 236 235 241 245 248 245 246 241 254 258 259 259 266 263 262 264 257 256 257 261 228 217 217 243 247 292 298 264 304 284 267 226 276 304 316 308 307 290 293 318 311 307 309 303 306 302 295 288 279 272 271 275 275 272 269 265 263 263 261 257 249
220 225 227 221 216 208 214 212 215 214 214 212 212 217 219 217 218 221 227 229 231 231 231 230 230 231 237 243 245 239 239 239 246 251 253 256 252 258 254 257 259 246 253 256 241 230 229 249 266 242 267 274 232 279 297 121 249 238 268 308 311 301 304 284 302 306 312 309 296 280 271 270 274 275 274 270 264 264 263 263 264 263 263 259 253
213 216 220 222 226 214 218 216 220 216 215 218 219 219 220 218 217 223 223 226 229 231 234 230 227 227 227 232 236 235 234 239 239 246 235 249 243 255 255 246 252 243 253 259 255 239 246 243 243 265 247 271 298 258 287 336 317 299 211 222 267 289 300 309 281 293 296 299 296 304 299 286 276 270 273 272 266 264 265 265 261 261 260 259 255
203 209 217 218 221 225 226 223 226 222 218 222 220 218 218 222 218 226 226 227 228 231 234 234 230 229 230 229 232 233 233 237 234 238 237 226 230 246 257 235 245 244 256 262 259 266 262 250 268 256 266 279 267 277 292 286 262 255 265 155 264 271 277 297 293 278 255 269 283 278 287 274 291 284 272 282 270 257 258 248 263 259 258 257 253
218 212 199 212 213 221 227 227 223 217 222 226 226 221 217 218 218 223 225 227 228 230 233 238 241 233 232 231 234 232 231 237 241 242 243 244 239 234 244 240 235 237 242 251 261 255 255 264 260 264 277 269 266 258 253 254 262 279 293 276 274 286 309 288 277 263 254 256 287 291 274 278 261 288 288 277 272 233 255 241 243 247 254 250 249
206 210 209 219 216 212 220 230 227 221 223 226 227 222 222 225 224 218 220 227 223 225 227 230 238 238 236 234 236 244 243 242 244 245 242 242 243 242 245 246 239 224 235 243 247 241 244 248 255 257 249 262 267 260 254 264 262 249 254 259 261 285 291 307 306 307 233 208 282 291 293 262 248 275 276 269 271 256 233 242 251 253 255 258 256
201 189 198 207 204 204 203 227 237 237 234 231 227 225 223 226 223 224 221 225 222 220 226 228 236 239 241 240 240 241 242 239 244 251 251 248 245 245 247 250 253 249 235 228 240 249 232 240 250 246 242 248 259 262 267 255 260 256 242 230 237 247 272 275 267 270 254 141 280 296 292 283 213 248 274 268 264 254 241 243 249 254 256 258 257
203 200 208 199 204 199 179 166 216 245 248 250 242 237 235 235 235 237 263 250 236 236 233 235 240 244 246 249 255 249 249 251 250 249 249 256 254 249 248 251 256 256 253 242 236 234 238 234 239 251 235 240 250 253 238 236 217 245 252 241 235 229 230 249 255 267 279 191 226 273 281 286 167 262 275 278 269 261 261 248 248 255 258 257 256
231 245 237 221 207 196 194 182 185 213 211 318 257 235 231 227 220 202 222 228 232 235 232 231 232 234 234 236 246 256 252 254 256 258 260 259 263 266 263 255 251 256 254 247 242 241 238 237 235 243 249 222 239 245 248 227 225 247 252 256 251 255 251 245 247 251 268 162 240 275 281 284 275 272 274 280 278 275 263 260 260 261 260 260 258
227 221 222 224 225 222 220 207 187 195 160 193 159 214 226 221 217 200 214 220 229 237 238 234 235 235 234 228 229 242 251 246 241 236 244 250 255 260 266 266 259 255 252 253 244 234 229 225 233 239 249 248 244 248 252 239 226 240 239 248 244 245 263 291 297 258 273 236 205 173 254 279 275 286 277 282 290 279 270 273 261 258 258 259 258
297 276 266 215 215 220 210 202 198 199 183 194 181 185 186 205 195 197 204 211 221 230 236 238 240 240 238 233 230 240 245 250 253 246 245 250 253 257 259 261 265 263 259 251 249 247 239 228 223 232 240 244 244 246 248 246 241 244 253 291 313 258 280 286 275 286 275 244 167 179 247 276 247 241 279 288 299 290 286 279 272 259 266 268 264
335 322 297 271 236 200 213 212 204 215 212 208 191 181 182 171 152 180 190 207 223 230 239 241 244 249 250 244 241 246 252 252 255 252 251 244 251 254 257 261 261 264 266 266 253 248 248 248 248 248 250 255 260 261 261 260 252 243 170 277 263 244 254 271 274 276 272 277 221 186 205 272 256 214 275 275 278 285 287 284 280 289 307 297 280
329 304 298 300 294 254 256 261 258 261 263 226 202 187 180 177 182 176 188 197 224 238 255 255 246 246 244 245 241 238 245 254 255 255 257 252 251 255 259 263 267 266 266 263 266 259 242 239 245 249 255 261 263 266 267 265 260 235 203 238 247 215 246 240 265 267 287 287 249 160 181 242 274 216 250 289 310 252 261 268 283 305 330 313 306
276 277 265 273 283 295 283 274 278 273 278 293 257 248 221 207 216 224 202 212 237 244 244 253 243 238 256 264 270 274 274 278 292 295 294 289 269 266 264 267 268 267 264 267 259 263 266 263 258 248 256 250 250 248 252 253 255 237 216 233 248 224 249 254 254 281 299 278 224 161 193 271 222 264 183 320 307 272 256 263 289 288 286 290 296